TIME,�t�@���q�[�^�m���b�g���n,�t���O,�t�@���q�[�^�mMJ�n,�t���O
2003/1/1 0:00,0,0,0,0
2003/1/1 0:15,0,0,0,0
2003/1/1 0:30,0,0,0,0
2003/1/1 0:45,0,0,0,0
2003/1/1 1:00,0,0,0,0
2003/1/1 1:15,0,0,0,0
2003/1/1 1:30,0,0,0,0
2003/1/1 1:45,0,0,0,0
2003/1/1 2:00,0,0,0,0
2003/1/1 2:15,0,0,0,0
2003/1/1 2:30,0,0,0,0
2003/1/1 2:45,0,0,0,0
2003/1/1 3:00,0,0,0,0
2003/1/1 3:15,0,0,0,0
2003/1/1 3:30,0,0,0,0
2003/1/1 3:45,0,0,0,0
2003/1/1 4:00,0,0,0,0
2003/1/1 4:15,0,0,0,0
2003/1/1 4:30,0,0,0,0
2003/1/1 4:45,0,0,0,0
2003/1/1 5:00,0,0,0,0
2003/1/1 5:15,0,0,0,0
2003/1/1 5:30,0,0,0,0
2003/1/1 5:45,0,0,0,0
2003/1/1 6:00,0,0,0,0
2003/1/1 6:15,0,0,0,0
2003/1/1 6:30,0,0,0,0
2003/1/1 6:45,0,0,0,0
2003/1/1 7:00,0,0,0,0
2003/1/1 7:15,0,0,0,0
2003/1/1 7:30,0,0,0,0
2003/1/1 7:45,0,0,0,0
2003/1/1 8:00,0,0,0,0
2003/1/1 8:15,0,0,0,0
2003/1/1 8:30,0,0,0,0
2003/1/1 8:45,0,0,0,0
2003/1/1 9:00,0,0,0,0
2003/1/1 9:15,0,0,0,0
2003/1/1 9:30,0,0,0,0
2003/1/1 9:45,0,0,0,0
2003/1/1 10:00,0,0,0,0
2003/1/1 10:15,0,0,0,0
2003/1/1 10:30,0,0,0,0
2003/1/1 10:45,0,0,0,0
2003/1/1 11:00,0,0,0,0
2003/1/1 11:15,0,0,0,0
2003/1/1 11:30,0,0,0,0
2003/1/1 11:45,0,0,0,0
2003/1/1 12:00,0,0,0,0
2003/1/1 12:15,0,0,0,0
2003/1/1 12:30,0,0,0,0
2003/1/1 12:45,0,0,0,0
2003/1/1 13:00,0,0,0,0
2003/1/1 13:15,0,0,0,0
2003/1/1 13:30,0,0,0,0
2003/1/1 13:45,0,0,0,0
2003/1/1 14:00,0,0,0,0
2003/1/1 14:15,0,0,0,0
2003/1/1 14:30,0,0,0,0
2003/1/1 14:45,0,0,0,0
2003/1/1 15:00,0,0,0,0
2003/1/1 15:15,0,0,0,0
2003/1/1 15:30,0,0,0,0
2003/1/1 15:45,0,0,0,0
2003/1/1 16:00,0,0,0,0
2003/1/1 16:15,0,0,0,0
2003/1/1 16:30,0,0,0,0
2003/1/1 16:45,0,0,0,0
2003/1/1 17:00,0,0,0,0
2003/1/1 17:15,0,0,0,0
2003/1/1 17:30,0,0,0,0
2003/1/1 17:45,0,0,0,0
2003/1/1 18:00,0,0,0,0
2003/1/1 18:15,0,0,0,0
2003/1/1 18:30,0,0,0,0
2003/1/1 18:45,0,0,0,0
2003/1/1 19:00,0,0,0,0
2003/1/1 19:15,0,0,0,0
2003/1/1 19:30,0,0,0,0
2003/1/1 19:45,0,0,0,0
2003/1/1 20:00,0,0,0,0
2003/1/1 20:15,0,0,0,0
2003/1/1 20:30,2.15475E-05,0,2.64,0
2003/1/1 20:45,9.16988E-05,0,11.22,0
2003/1/1 21:00,7.66838E-05,0,9.38,0
2003/1/1 21:15,5.98163E-05,0,7.32,0
2003/1/1 21:30,4.38263E-05,0,5.36,0
2003/1/1 21:45,2.70563E-05,0,3.31,0
2003/1/1 22:00,3.11513E-05,0,0,0
2003/1/1 22:15,0,0,0,0
2003/1/1 22:30,0,0,0,0
2003/1/1 22:45,0,0,0,0
2003/1/1 23:00,0,0,0,0
2003/1/1 23:15,0,0,0,0
2003/1/1 23:30,0,0,0,0
2003/1/1 23:45,0,0,0,0
2003/1/2 0:00,0,0,0,0
2003/1/2 0:15,0,0,0,0
2003/1/2 0:30,0,0,0,0
2003/1/2 0:45,0,0,0,0
2003/1/2 1:00,0,0,0,0
2003/1/2 1:15,0,0,0,0
2003/1/2 1:30,0,0,0,0
2003/1/2 1:45,0,0,0,0
2003/1/2 2:00,0,0,0,0
2003/1/2 2:15,0,0,0,0
2003/1/2 2:30,0,0,0,0
2003/1/2 2:45,0,0,0,0
2003/1/2 3:00,0,0,0,0
2003/1/2 3:15,0,0,0,0
2003/1/2 3:30,0,0,0,0
2003/1/2 3:45,0,0,0,0
2003/1/2 4:00,0,0,0,0
2003/1/2 4:15,0,0,0,0
2003/1/2 4:30,0,0,0,0
2003/1/2 4:45,0,0,0,0
2003/1/2 5:00,0,0,0,0
2003/1/2 5:15,0,0,0,0
2003/1/2 5:30,0,0,0,0
2003/1/2 5:45,0,0,0,0
2003/1/2 6:00,0,0,0,0
2003/1/2 6:15,0,0,0,0
2003/1/2 6:30,0,0,0,0
2003/1/2 6:45,0,0,0,0
2003/1/2 7:00,0,0,0,0
2003/1/2 7:15,0,0,0,0
2003/1/2 7:30,0,0,0,0
2003/1/2 7:45,0,0,0,0
2003/1/2 8:00,0,0,0,0
2003/1/2 8:15,0,0,0,0
2003/1/2 8:30,0,0,0,0
2003/1/2 8:45,0,0,0,0
2003/1/2 9:00,0,0,0,0
2003/1/2 9:15,0,0,0,0
2003/1/2 9:30,2.69588E-05,0,3.3,0
2003/1/2 9:45,0.00010179,0,12.45,0
2003/1/2 10:00,0.0001014,0,12.4,0
2003/1/2 10:15,0.00008697,0,10.64,0
2003/1/2 10:30,7.32225E-05,0,8.96,0
2003/1/2 10:45,0.000080925,0,9.9,0
2003/1/2 11:00,0.000089505,0,10.95,0
2003/1/2 11:15,5.10413E-05,0,6.25,0
2003/1/2 11:30,3.33938E-05,0,4.08,0
2003/1/2 11:45,0.000021645,0,2.65,0
2003/1/2 12:00,6.65438E-05,0,3.05,0
2003/1/2 12:15,0,0,0,0
2003/1/2 12:30,0,0,0,0
2003/1/2 12:45,0,0,0,0
2003/1/2 13:00,0,0,0,0
2003/1/2 13:15,0,0,0,0
2003/1/2 13:30,0,0,0,0
2003/1/2 13:45,0,0,0,0
2003/1/2 14:00,0,0,0,0
2003/1/2 14:15,0,0,0,0
2003/1/2 14:30,0,0,0,0
2003/1/2 14:45,0,0,0,0
2003/1/2 15:00,0,0,0,0
2003/1/2 15:15,0,0,0,0
2003/1/2 15:30,0,0,0,0
2003/1/2 15:45,0,0,0,0
2003/1/2 16:00,0,0,0,0
2003/1/2 16:15,0,0,0,0
2003/1/2 16:30,0,0,0,0
2003/1/2 16:45,0,0,0,0
2003/1/2 17:00,0,0,0,0
2003/1/2 17:15,0,0,0,0
2003/1/2 17:30,0,0,0,0
2003/1/2 17:45,0,0,0,0
2003/1/2 18:00,0,0,0,0
2003/1/2 18:15,0,0,0,0
2003/1/2 18:30,0,0,0,0
2003/1/2 18:45,0,0,0,0
2003/1/2 19:00,0,0,0,0
2003/1/2 19:15,0,0,0,0
2003/1/2 19:30,0,0,0,0
2003/1/2 19:45,0,0,0,0
2003/1/2 20:00,0,0,0,0
2003/1/2 20:15,0,0,0,0
2003/1/2 20:30,0,0,0,0
2003/1/2 20:45,0,0,0,0
2003/1/2 21:00,0,0,0,0
2003/1/2 21:15,0,0,0,0
2003/1/2 21:30,0,0,0,0
2003/1/2 21:45,0,0,0,0
2003/1/2 22:00,0,0,0,0
2003/1/2 22:15,0,0,0,0
2003/1/2 22:30,0,0,0,0
2003/1/2 22:45,0,0,0,0
2003/1/2 23:00,0,0,0,0
2003/1/2 23:15,0,0,0,0
2003/1/2 23:30,0,0,0,0
2003/1/2 23:45,0,0,0,0
2003/1/3 0:00,0,0,0,0
2003/1/3 0:15,0,0,0,0
2003/1/3 0:30,0,0,0,0
2003/1/3 0:45,0,0,0,0
2003/1/3 1:00,0,0,0,0
2003/1/3 1:15,0,0,0,0
2003/1/3 1:30,0,0,0,0
2003/1/3 1:45,0,0,0,0
2003/1/3 2:00,0,0,0,0
2003/1/3 2:15,0,0,0,0
2003/1/3 2:30,0,0,0,0
2003/1/3 2:45,0,0,0,0
2003/1/3 3:00,0,0,0,0
2003/1/3 3:15,0,0,0,0
2003/1/3 3:30,0,0,0,0
2003/1/3 3:45,0,0,0,0
2003/1/3 4:00,0,0,0,0
2003/1/3 4:15,0,0,0,0
2003/1/3 4:30,0,0,0,0
2003/1/3 4:45,0,0,0,0
2003/1/3 5:00,0,0,0,0
2003/1/3 5:15,0,0,0,0
2003/1/3 5:30,0,0,0,0
2003/1/3 5:45,0,0,0,0
2003/1/3 6:00,0,0,0,0
2003/1/3 6:15,0,0,0,0
2003/1/3 6:30,0.00008112,0,9.92,0
2003/1/3 6:45,0.00010179,0,12.45,0
2003/1/3 7:00,0.00010179,0,12.45,0
2003/1/3 7:15,0.000101741,0,12.45,0
2003/1/3 7:30,7.51238E-05,0,9.19,0
2003/1/3 7:45,6.52763E-05,0,7.98,0
2003/1/3 8:00,9.12113E-05,0,5.63,0
2003/1/3 8:15,0,0,0,0
2003/1/3 8:30,0,0,0,0
2003/1/3 8:45,0,0,0,0
2003/1/3 9:00,0,0,0,0
2003/1/3 9:15,0,0,0,0
2003/1/3 9:30,0,0,0,0
2003/1/3 9:45,0,0,0,0
2003/1/3 10:00,0,0,0,0
2003/1/3 10:15,0.000049335,0,6.04,0
2003/1/3 10:30,6.97613E-05,0,8.53,0
2003/1/3 10:45,0.00004134,0,5.06,0
2003/1/3 11:00,3.26625E-05,0,0,0
2003/1/3 11:15,0,0,0,0
2003/1/3 11:30,0,0,0,0
2003/1/3 11:45,0,0,0,0
2003/1/3 12:00,0,0,0,0
2003/1/3 12:15,0,0,0,0
2003/1/3 12:30,0,0,0,0
2003/1/3 12:45,0,0,0,0
2003/1/3 13:00,0,0,0,0
2003/1/3 13:15,0,0,0,0
2003/1/3 13:30,0,0,0,0
2003/1/3 13:45,0,0,0,0
2003/1/3 14:00,0,0,0,0
2003/1/3 14:15,0,0,0,0
2003/1/3 14:30,0,0,0,0
2003/1/3 14:45,0,0,0,0
2003/1/3 15:00,0,0,0,0
2003/1/3 15:15,0,0,0,0
2003/1/3 15:30,0,0,0,0
2003/1/3 15:45,0,0,0,0
2003/1/3 16:00,0,0,0,0
2003/1/3 16:15,0,0,0,0
2003/1/3 16:30,0,0,0,0
2003/1/3 16:45,0,0,0,0
2003/1/3 17:00,0,0,0,0
2003/1/3 17:15,0,0,0,0
2003/1/3 17:30,0,0,0,0
2003/1/3 17:45,0,0,0,0
2003/1/3 18:00,0,0,0,0
2003/1/3 18:15,0,0,0,0
2003/1/3 18:30,0,0,0,0
2003/1/3 18:45,0,0,0,0
2003/1/3 19:00,0,0,0,0
2003/1/3 19:15,7.94138E-05,0,9.72,0
2003/1/3 19:30,7.19063E-05,0,8.8,0
2003/1/3 19:45,5.30888E-05,0,6.49,0
2003/1/3 20:00,0.000060255,0,7.37,0
2003/1/3 20:15,4.67513E-05,0,1.51,0
2003/1/3 20:30,0.00001911,0,2.34,0
2003/1/3 20:45,2.17913E-05,0,2.66,0
2003/1/3 21:00,2.16938E-05,0,2.66,0
2003/1/3 21:15,3.01275E-05,0,3.69,0
2003/1/3 21:30,0.000044655,0,1,0
2003/1/3 21:45,0,0,0,0
2003/1/3 22:00,0,0,0,0
2003/1/3 22:15,0,0,0,0
2003/1/3 22:30,0,0,0,0
2003/1/3 22:45,0,0,0,0
2003/1/3 23:00,0,0,0,0
2003/1/3 23:15,0,0,0,0
2003/1/3 23:30,0,0,0,0
2003/1/3 23:45,0,0,0,0
2003/1/4 0:00,0,0,0,0
2003/1/4 0:15,0,0,0,0
2003/1/4 0:30,0,0,0,0
2003/1/4 0:45,0,0,0,0
2003/1/4 1:00,0,0,0,0
2003/1/4 1:15,0,0,0,0
2003/1/4 1:30,0,0,0,0
2003/1/4 1:45,0,0,0,0
2003/1/4 2:00,0,0,0,0
2003/1/4 2:15,0,0,0,0
2003/1/4 2:30,0,0,0,0
2003/1/4 2:45,0,0,0,0
2003/1/4 3:00,0,0,0,0
2003/1/4 3:15,0,0,0,0
2003/1/4 3:30,0,0,0,0
2003/1/4 3:45,0,0,0,0
2003/1/4 4:00,0,0,0,0
2003/1/4 4:15,0,0,0,0
2003/1/4 4:30,0,0,0,0
2003/1/4 4:45,0,0,0,0
2003/1/4 5:00,0,0,0,0
2003/1/4 5:15,0,0,0,0
2003/1/4 5:30,0,0,0,0
2003/1/4 5:45,0,0,0,0
2003/1/4 6:00,0,0,0,0
2003/1/4 6:15,0,0,0,0
2003/1/4 6:30,0.000010335,0,1.26,0
2003/1/4 6:45,0.000114709,0,14.03,0
2003/1/4 7:00,0.000015795,0,0,0
2003/1/4 7:15,0,0,0,0
2003/1/4 7:30,0.000054015,0,6.61,0
2003/1/4 7:45,8.37525E-05,0,10.25,0
2003/1/4 8:00,6.94688E-05,0,8.5,0
2003/1/4 8:15,8.23388E-05,0,10.07,0
2003/1/4 8:30,0.00003198,0,0,0
2003/1/4 8:45,0,0,0,0
2003/1/4 9:00,0,0,0,0
2003/1/4 9:15,3.29063E-05,0,4.03,0
2003/1/4 9:30,6.00113E-05,0,2.21,0
2003/1/4 9:45,0,0,0,0
2003/1/4 10:00,0,0,0,0
2003/1/4 10:15,0,0,0,0
2003/1/4 10:30,0,0,0,0
2003/1/4 10:45,0,0,0,0
2003/1/4 11:00,0,0,0,0
2003/1/4 11:15,0,0,0,0
2003/1/4 11:30,0,0,0,0
2003/1/4 11:45,0,0,0,0
2003/1/4 12:00,0,0,0,0
2003/1/4 12:15,0,0,0,0
2003/1/4 12:30,0,0,0,0
2003/1/4 12:45,0,0,0,0
2003/1/4 13:00,0,0,0,0
2003/1/4 13:15,0,0,0,0
2003/1/4 13:30,0,0,0,0
2003/1/4 13:45,0,0,0,0
2003/1/4 14:00,0,0,0,0
2003/1/4 14:15,0,0,0,0
2003/1/4 14:30,0,0,0,0
2003/1/4 14:45,0,0,0,0
2003/1/4 15:00,0,0,0,0
2003/1/4 15:15,0,0,0,0
2003/1/4 15:30,0,0,0,0
2003/1/4 15:45,0,0,0,0
2003/1/4 16:00,0,0,0,0
2003/1/4 16:15,0,0,0,0
2003/1/4 16:30,0,0,0,0
2003/1/4 16:45,0,0,0,0
2003/1/4 17:00,0,0,0,0
2003/1/4 17:15,0,0,0,0
2003/1/4 17:30,0,0,0,0
2003/1/4 17:45,0,0,0,0
2003/1/4 18:00,0,0,0,0
2003/1/4 18:15,0,0,0,0
2003/1/4 18:30,0,0,0,0
2003/1/4 18:45,0,0,0,0
2003/1/4 19:00,0,0,0,0
2003/1/4 19:15,0,0,0,0
2003/1/4 19:30,0,0,0,0
2003/1/4 19:45,0,0,0,0
2003/1/4 20:00,0,0,0,0
2003/1/4 20:15,0,0,0,0
2003/1/4 20:30,0,0,0,0
2003/1/4 20:45,4.17788E-05,0,5.11,0
2003/1/4 21:00,0.000091845,0,11.24,0
2003/1/4 21:15,6.07425E-05,0,7.43,0
2003/1/4 21:30,5.55263E-05,0,6.79,0
2003/1/4 21:45,0.000034515,0,4.22,0
2003/1/4 22:00,4.20225E-05,0,5.14,0
2003/1/4 22:15,6.78113E-05,0,4.06,0
2003/1/4 22:30,0,0,0,0
2003/1/4 22:45,0,0,0,0
2003/1/4 23:00,0,0,0,0
2003/1/4 23:15,0,0,0,0
2003/1/4 23:30,0,0,0,0
2003/1/4 23:45,0,0,0,0
2003/1/5 0:00,0,0,0,0
2003/1/5 0:15,0,0,0,0
2003/1/5 0:30,0,0,0,0
2003/1/5 0:45,0,0,0,0
2003/1/5 1:00,0,0,0,0
2003/1/5 1:15,0,0,0,0
2003/1/5 1:30,0,0,0,0
2003/1/5 1:45,0,0,0,0
2003/1/5 2:00,0,0,0,0
2003/1/5 2:15,0,0,0,0
2003/1/5 2:30,0,0,0,0
2003/1/5 2:45,0,0,0,0
2003/1/5 3:00,0,0,0,0
2003/1/5 3:15,0,0,0,0
2003/1/5 3:30,0,0,0,0
2003/1/5 3:45,0,0,0,0
2003/1/5 4:00,0,0,0,0
2003/1/5 4:15,0,0,0,0
2003/1/5 4:30,0,0,0,0
2003/1/5 4:45,0,0,0,0
2003/1/5 5:00,0,0,0,0
2003/1/5 5:15,0,0,0,0
2003/1/5 5:30,0,0,0,0
2003/1/5 5:45,0,0,0,0
2003/1/5 6:00,0,0,0,0
2003/1/5 6:15,0,0,0,0
2003/1/5 6:30,0.000069615,0,8.51,0
2003/1/5 6:45,0.0001014,0,12.4,0
2003/1/5 7:00,6.74213E-05,0,8.25,0
2003/1/5 7:15,6.05475E-05,0,2.58,0
2003/1/5 7:30,0,0,0,0
2003/1/5 7:45,7.68788E-05,0,9.41,0
2003/1/5 8:00,0.000122996,0,8.26,0
2003/1/5 8:15,0,0,0,0
2003/1/5 8:30,0,0,0,0
2003/1/5 8:45,0,0,0,0
2003/1/5 9:00,0,0,0,0
2003/1/5 9:15,0,0,0,0
2003/1/5 9:30,0,0,0,0
2003/1/5 9:45,2.21325E-05,0,2.71,0
2003/1/5 10:00,9.56963E-05,0,11.71,0
2003/1/5 10:15,9.28688E-05,0,6.54,0
2003/1/5 10:30,0,0,0,0
2003/1/5 10:45,0,0,0,0
2003/1/5 11:00,0,0,0,0
2003/1/5 11:15,0,0,0,0
2003/1/5 11:30,0,0,0,0
2003/1/5 11:45,0,0,0,0
2003/1/5 12:00,0,0,0,0
2003/1/5 12:15,0,0,0,0
2003/1/5 12:30,3.82688E-05,0,4.68,0
2003/1/5 12:45,0.000110858,0,8.3,0
2003/1/5 13:00,0,0,0,0
2003/1/5 13:15,0,0,0,0
2003/1/5 13:30,0,0,0,0
2003/1/5 13:45,0,0,0,0
2003/1/5 14:00,0,0,0,0
2003/1/5 14:15,0,0,0,0
2003/1/5 14:30,0,0,0,0
2003/1/5 14:45,0,0,0,0
2003/1/5 15:00,0,0,0,0
2003/1/5 15:15,0,0,0,0
2003/1/5 15:30,0,0,0,0
2003/1/5 15:45,0,0,0,0
2003/1/5 16:00,0,0,0,0
2003/1/5 16:15,0,0,0,0
2003/1/5 16:30,0,0,0,0
2003/1/5 16:45,0,0,0,0
2003/1/5 17:00,0,0,0,0
2003/1/5 17:15,0,0,0,0
2003/1/5 17:30,0,0,0,0
2003/1/5 17:45,0,0,0,0
2003/1/5 18:00,0,0,0,0
2003/1/5 18:15,0,0,0,0
2003/1/5 18:30,0,0,0,0
2003/1/5 18:45,0,0,0,0
2003/1/5 19:00,0,0,0,0
2003/1/5 19:15,0,0,0,0
2003/1/5 19:30,0,0,0,0
2003/1/5 19:45,0,0,0,0
2003/1/5 20:00,0,0,0,0
2003/1/5 20:15,0,0,0,0
2003/1/5 20:30,0,0,0,0
2003/1/5 20:45,0,0,0,0
2003/1/5 21:00,0,0,0,0
2003/1/5 21:15,0,0,0,0
2003/1/5 21:30,0,0,0,0
2003/1/5 21:45,0,0,0,0
2003/1/5 22:00,0,0,0,0
2003/1/5 22:15,0,0,0,0
2003/1/5 22:30,0,0,0,0
2003/1/5 22:45,0,0,0,0
2003/1/5 23:00,0,0,0,0
2003/1/5 23:15,0,0,0,0
2003/1/5 23:30,0,0,0,0
2003/1/5 23:45,0,0,0,0
2003/1/6 0:00,0,0,0,0
2003/1/6 0:15,0,0,0,0
2003/1/6 0:30,0,0,0,0
2003/1/6 0:45,0,0,0,0
2003/1/6 1:00,0,0,0,0
2003/1/6 1:15,0,0,0,0
2003/1/6 1:30,0,0,0,0
2003/1/6 1:45,0,0,0,0
2003/1/6 2:00,0,0,0,0
2003/1/6 2:15,0,0,0,0
2003/1/6 2:30,0,0,0,0
2003/1/6 2:45,0,0,0,0
2003/1/6 3:00,0,0,0,0
2003/1/6 3:15,0,0,0,0
2003/1/6 3:30,0,0,0,0
2003/1/6 3:45,0,0,0,0
2003/1/6 4:00,0,0,0,0
2003/1/6 4:15,0,0,0,0
2003/1/6 4:30,0,0,0,0
2003/1/6 4:45,0,0,0,0
2003/1/6 5:00,0,0,0,0
2003/1/6 5:15,0,0,0,0
2003/1/6 5:30,0,0,0,0
2003/1/6 5:45,2.12063E-05,0,2.6,0
2003/1/6 6:00,0.00010179,0,8.3,0
2003/1/6 6:15,0,0,0,0
2003/1/6 6:30,0,0,0,0
2003/1/6 6:45,7.84388E-05,0,4.31,0
2003/1/6 7:00,0,0,0,0
2003/1/6 7:15,0,0,0,0
2003/1/6 7:30,0,0,0,0
2003/1/6 7:45,6.32288E-05,0,2.67,0
2003/1/6 8:00,0,0,0,0
2003/1/6 8:15,0,0,0,0
2003/1/6 8:30,0,0,0,0
2003/1/6 8:45,0,0,0,0
2003/1/6 9:00,0,0,0,0
2003/1/6 9:15,0,0,0,0
2003/1/6 9:30,0,0,0,0
2003/1/6 9:45,0,0,0,0
2003/1/6 10:00,0,0,0,0
2003/1/6 10:15,0,0,0,0
2003/1/6 10:30,0,0,0,0
2003/1/6 10:45,0,0,0,0
2003/1/6 11:00,0,0,0,0
2003/1/6 11:15,0,0,0,0
2003/1/6 11:30,0,0,0,0
2003/1/6 11:45,0,0,0,0
2003/1/6 12:00,0,0,0,0
2003/1/6 12:15,0,0,0,0
2003/1/6 12:30,0,0,0,0
2003/1/6 12:45,0,0,0,0
2003/1/6 13:00,0,0,0,0
2003/1/6 13:15,0,0,0,0
2003/1/6 13:30,0,0,0,0
2003/1/6 13:45,0,0,0,0
2003/1/6 14:00,0,0,0,0
2003/1/6 14:15,0,0,0,0
2003/1/6 14:30,0,0,0,0
2003/1/6 14:45,0,0,0,0
2003/1/6 15:00,0,0,0,0
2003/1/6 15:15,0,0,0,0
2003/1/6 15:30,0,0,0,0
2003/1/6 15:45,0,0,0,0
2003/1/6 16:00,0,0,0,0
2003/1/6 16:15,0,0,0,0
2003/1/6 16:30,0,0,0,0
2003/1/6 16:45,0,0,0,0
2003/1/6 17:00,0,0,0,0
2003/1/6 17:15,0,0,0,0
2003/1/6 17:30,0,0,0,0
2003/1/6 17:45,0,0,0,0
2003/1/6 18:00,0,0,0,0
2003/1/6 18:15,0,0,0,0
2003/1/6 18:30,0,0,0,0
2003/1/6 18:45,0,0,0,0
2003/1/6 19:00,0,0,0,0
2003/1/6 19:15,0,0,0,0
2003/1/6 19:30,0,0,0,0
2003/1/6 19:45,0,0,0,0
2003/1/6 20:00,0,0,0,0
2003/1/6 20:15,0,0,0,0
2003/1/6 20:30,0,0,0,0
2003/1/6 20:45,0,0,0,0
2003/1/6 21:00,0,0,0,0
2003/1/6 21:15,0,0,0,0
2003/1/6 21:30,0,0,0,0
2003/1/6 21:45,0,0,0,0
2003/1/6 22:00,0,0,0,0
2003/1/6 22:15,0,0,0,0
2003/1/6 22:30,0,0,0,0
2003/1/6 22:45,0,0,0,0
2003/1/6 23:00,0,0,0,0
2003/1/6 23:15,0,0,0,0
2003/1/6 23:30,0,0,0,0
2003/1/6 23:45,0,0,0,0
2003/1/7 0:00,0,0,0,0
2003/1/7 0:15,0,0,0,0
2003/1/7 0:30,0,0,0,0
2003/1/7 0:45,0,0,0,0
2003/1/7 1:00,0,0,0,0
2003/1/7 1:15,0,0,0,0
2003/1/7 1:30,0,0,0,0
2003/1/7 1:45,0,0,0,0
2003/1/7 2:00,0,0,0,0
2003/1/7 2:15,0,0,0,0
2003/1/7 2:30,0,0,0,0
2003/1/7 2:45,0,0,0,0
2003/1/7 3:00,0,0,0,0
2003/1/7 3:15,0,0,0,0
2003/1/7 3:30,0,0,0,0
2003/1/7 3:45,0,0,0,0
2003/1/7 4:00,0,0,0,0
2003/1/7 4:15,0,0,0,0
2003/1/7 4:30,0,0,0,0
2003/1/7 4:45,0,0,0,0
2003/1/7 5:00,0,0,0,0
2003/1/7 5:15,0,0,0,0
2003/1/7 5:30,0,0,0,0
2003/1/7 5:45,0,0,0,0
2003/1/7 6:00,0,0,0,0
2003/1/7 6:15,0,0,0,0
2003/1/7 6:30,0,0,0,0
2003/1/7 6:45,0,0,0,0
2003/1/7 7:00,0,0,0,0
2003/1/7 7:15,0,0,0,0
2003/1/7 7:30,0,0,0,0
2003/1/7 7:45,0,0,0,0
2003/1/7 8:00,0,0,0,0
2003/1/7 8:15,0,0,0,0
2003/1/7 8:30,0,0,0,0
2003/1/7 8:45,0,0,0,0
2003/1/7 9:00,0,0,0,0
2003/1/7 9:15,0,0,0,0
2003/1/7 9:30,0,0,0,0
2003/1/7 9:45,0,0,0,0
2003/1/7 10:00,0,0,0,0
2003/1/7 10:15,0,0,0,0
2003/1/7 10:30,0,0,0,0
2003/1/7 10:45,0,0,0,0
2003/1/7 11:00,0,0,0,0
2003/1/7 11:15,0,0,0,0
2003/1/7 11:30,0,0,0,0
2003/1/7 11:45,0,0,0,0
2003/1/7 12:00,0,0,0,0
2003/1/7 12:15,0,0,0,0
2003/1/7 12:30,0,0,0,0
2003/1/7 12:45,0,0,0,0
2003/1/7 13:00,0,0,0,0
2003/1/7 13:15,0,0,0,0
2003/1/7 13:30,0,0,0,0
2003/1/7 13:45,0,0,0,0
2003/1/7 14:00,0,0,0,0
2003/1/7 14:15,0,0,0,0
2003/1/7 14:30,0,0,0,0
2003/1/7 14:45,0,0,0,0
2003/1/7 15:00,0,0,0,0
2003/1/7 15:15,0,0,0,0
2003/1/7 15:30,0,0,0,0
2003/1/7 15:45,0,0,0,0
2003/1/7 16:00,0,0,0,0
2003/1/7 16:15,0,0,0,0
2003/1/7 16:30,0,0,0,0
2003/1/7 16:45,0,0,0,0
2003/1/7 17:00,0,0,0,0
2003/1/7 17:15,0,0,0,0
2003/1/7 17:30,0,0,0,0
2003/1/7 17:45,0,0,0,0
2003/1/7 18:00,0,0,0,0
2003/1/7 18:15,0,0,0,0
2003/1/7 18:30,0,0,0,0
2003/1/7 18:45,0,0,0,0
2003/1/7 19:00,0,0,0,0
2003/1/7 19:15,0,0,0,0
2003/1/7 19:30,0,0,0,0
2003/1/7 19:45,0,0,0,0
2003/1/7 20:00,0,0,0,0
2003/1/7 20:15,0,0,0,0
2003/1/7 20:30,0,0,0,0
2003/1/7 20:45,0,0,0,0
2003/1/7 21:00,0,0,0,0
2003/1/7 21:15,0,0,0,0
2003/1/7 21:30,0.00001911,0,2.34,0
2003/1/7 21:45,0.00010179,0,12.45,0
2003/1/7 22:00,0.000101498,0,12.42,0
2003/1/7 22:15,9.16988E-05,0,11.22,0
2003/1/7 22:30,9.82313E-05,0,12.02,0
2003/1/7 22:45,7.34175E-05,0,8.98,0
2003/1/7 23:00,6.30825E-05,0,7.72,0
2003/1/7 23:15,0.00002964,0,3.62,0
2003/1/7 23:30,3.51975E-05,0,4.31,0
2003/1/7 23:45,0.00003354,0,0,0
2003/1/8 0:00,0,0,0,0
2003/1/8 0:15,0,0,0,0
2003/1/8 0:30,0,0,0,0
2003/1/8 0:45,0,0,0,0
2003/1/8 1:00,0,0,0,0
2003/1/8 1:15,0,0,0,0
2003/1/8 1:30,0,0,0,0
2003/1/8 1:45,0,0,0,0
2003/1/8 2:00,0,0,0,0
2003/1/8 2:15,0,0,0,0
2003/1/8 2:30,0,0,0,0
2003/1/8 2:45,0,0,0,0
2003/1/8 3:00,0,0,0,0
2003/1/8 3:15,0,0,0,0
2003/1/8 3:30,0,0,0,0
2003/1/8 3:45,0,0,0,0
2003/1/8 4:00,0,0,0,0
2003/1/8 4:15,0,0,0,0
2003/1/8 4:30,0,0,0,0
2003/1/8 4:45,0,0,0,0
2003/1/8 5:00,0,0,0,0
2003/1/8 5:15,0,0,0,0
2003/1/8 5:30,0,0,0,0
2003/1/8 5:45,0,0,0,0
2003/1/8 6:00,0,0,0,0
2003/1/8 6:15,0,0,0,0
2003/1/8 6:30,0,0,0,0
2003/1/8 6:45,0,0,0,0
2003/1/8 7:00,0,0,0,0
2003/1/8 7:15,0,0,0,0
2003/1/8 7:30,0,0,0,0
2003/1/8 7:45,0,0,0,0
2003/1/8 8:00,0,0,0,0
2003/1/8 8:15,0,0,0,0
2003/1/8 8:30,0,0,0,0
2003/1/8 8:45,0,0,0,0
2003/1/8 9:00,0,0,0,0
2003/1/8 9:15,0,0,0,0
2003/1/8 9:30,0,0,0,0
2003/1/8 9:45,0,0,0,0
2003/1/8 10:00,0,0,0,0
2003/1/8 10:15,0,0,0,0
2003/1/8 10:30,0,0,0,0
2003/1/8 10:45,0,0,0,0
2003/1/8 11:00,0,0,0,0
2003/1/8 11:15,0,0,0,0
2003/1/8 11:30,0,0,0,0
2003/1/8 11:45,0,0,0,0
2003/1/8 12:00,0,0,0,0
2003/1/8 12:15,0,0,0,0
2003/1/8 12:30,0,0,0,0
2003/1/8 12:45,0,0,0,0
2003/1/8 13:00,0,0,0,0
2003/1/8 13:15,0,0,0,0
2003/1/8 13:30,0,0,0,0
2003/1/8 13:45,0,0,0,0
2003/1/8 14:00,0,0,0,0
2003/1/8 14:15,0,0,0,0
2003/1/8 14:30,0,0,0,0
2003/1/8 14:45,0,0,0,0
2003/1/8 15:00,0,0,0,0
2003/1/8 15:15,0,0,0,0
2003/1/8 15:30,0,0,0,0
2003/1/8 15:45,0,0,0,0
2003/1/8 16:00,0,0,0,0
2003/1/8 16:15,0,0,0,0
2003/1/8 16:30,0,0,0,0
2003/1/8 16:45,0,0,0,0
2003/1/8 17:00,0,0,0,0
2003/1/8 17:15,0,0,0,0
2003/1/8 17:30,0,0,0,0
2003/1/8 17:45,0,0,0,0
2003/1/8 18:00,0,0,0,0
2003/1/8 18:15,0,0,0,0
2003/1/8 18:30,0,0,0,0
2003/1/8 18:45,0,0,0,0
2003/1/8 19:00,0,0,0,0
2003/1/8 19:15,0,0,0,0
2003/1/8 19:30,0,0,0,0
2003/1/8 19:45,0,0,0,0
2003/1/8 20:00,0,0,0,0
2003/1/8 20:15,0,0,0,0
2003/1/8 20:30,0,0,0,0
2003/1/8 20:45,0,0,0,0
2003/1/8 21:00,0,0,0,0
2003/1/8 21:15,0,0,0,0
2003/1/8 21:30,0,0,0,0
2003/1/8 21:45,0,0,0,0
2003/1/8 22:00,0,0,0,0
2003/1/8 22:15,0,0,0,0
2003/1/8 22:30,0,0,0,0
2003/1/8 22:45,0,0,0,0
2003/1/8 23:00,0,0,0,0
2003/1/8 23:15,0,0,0,0
2003/1/8 23:30,0,0,0,0
2003/1/8 23:45,0,0,0,0
2003/1/9 0:00,0,0,0,0
2003/1/9 0:15,0,0,0,0
2003/1/9 0:30,0,0,0,0
2003/1/9 0:45,0,0,0,0
2003/1/9 1:00,0,0,0,0
2003/1/9 1:15,0,0,0,0
2003/1/9 1:30,0,0,0,0
2003/1/9 1:45,0,0,0,0
2003/1/9 2:00,0,0,0,0
2003/1/9 2:15,0,0,0,0
2003/1/9 2:30,0,0,0,0
2003/1/9 2:45,0,0,0,0
2003/1/9 3:00,0,0,0,0
2003/1/9 3:15,0,0,0,0
2003/1/9 3:30,0,0,0,0
2003/1/9 3:45,0,0,0,0
2003/1/9 4:00,0,0,0,0
2003/1/9 4:15,0,0,0,0
2003/1/9 4:30,0,0,0,0
2003/1/9 4:45,0,0,0,0
2003/1/9 5:00,0,0,0,0
2003/1/9 5:15,0,0,0,0
2003/1/9 5:30,0,0,0,0
2003/1/9 5:45,0,0,0,0
2003/1/9 6:00,1.68675E-05,0,2.06,0
2003/1/9 6:15,0.00010179,0,12.45,0
2003/1/9 6:30,0.00010179,0,12.45,0
2003/1/9 6:45,0.000101156,0,8.16,0
2003/1/9 7:00,0,0,0,0
2003/1/9 7:15,0,0,0,0
2003/1/9 7:30,0,0,0,0
2003/1/9 7:45,0,0,0,0
2003/1/9 8:00,0,0,0,0
2003/1/9 8:15,0,0,0,0
2003/1/9 8:30,0,0,0,0
2003/1/9 8:45,0,0,0,0
2003/1/9 9:00,0,0,0,0
2003/1/9 9:15,0,0,0,0
2003/1/9 9:30,0,0,0,0
2003/1/9 9:45,0,0,0,0
2003/1/9 10:00,0,0,0,0
2003/1/9 10:15,0,0,0,0
2003/1/9 10:30,0,0,0,0
2003/1/9 10:45,0,0,0,0
2003/1/9 11:00,0,0,0,0
2003/1/9 11:15,0,0,0,0
2003/1/9 11:30,0,0,0,0
2003/1/9 11:45,0,0,0,0
2003/1/9 12:00,0,0,0,0
2003/1/9 12:15,0,0,0,0
2003/1/9 12:30,0,0,0,0
2003/1/9 12:45,0,0,0,0
2003/1/9 13:00,0,0,0,0
2003/1/9 13:15,0,0,0,0
2003/1/9 13:30,0,0,0,0
2003/1/9 13:45,0,0,0,0
2003/1/9 14:00,0,0,0,0
2003/1/9 14:15,0,0,0,0
2003/1/9 14:30,0,0,0,0
2003/1/9 14:45,0,0,0,0
2003/1/9 15:00,0,0,0,0
2003/1/9 15:15,0,0,0,0
2003/1/9 15:30,0,0,0,0
2003/1/9 15:45,0,0,0,0
2003/1/9 16:00,0,0,0,0
2003/1/9 16:15,0,0,0,0
2003/1/9 16:30,0,0,0,0
2003/1/9 16:45,0,0,0,0
2003/1/9 17:00,0,0,0,0
2003/1/9 17:15,0,0,0,0
2003/1/9 17:30,0,0,0,0
2003/1/9 17:45,0,0,0,0
2003/1/9 18:00,0,0,0,0
2003/1/9 18:15,0,0,0,0
2003/1/9 18:30,0,0,0,0
2003/1/9 18:45,0,0,0,0
2003/1/9 19:00,0,0,0,0
2003/1/9 19:15,0,0,0,0
2003/1/9 19:30,0,0,0,0
2003/1/9 19:45,0,0,0,0
2003/1/9 20:00,0,0,0,0
2003/1/9 20:15,0,0,0,0
2003/1/9 20:30,0,0,0,0
2003/1/9 20:45,0,0,0,0
2003/1/9 21:00,0,0,0,0
2003/1/9 21:15,0,0,0,0
2003/1/9 21:30,0,0,0,0
2003/1/9 21:45,0,0,0,0
2003/1/9 22:00,0,0,0,0
2003/1/9 22:15,0,0,0,0
2003/1/9 22:30,0,0,0,0
2003/1/9 22:45,0,0,0,0
2003/1/9 23:00,0,0,0,0
2003/1/9 23:15,0,0,0,0
2003/1/9 23:30,0,0,0,0
2003/1/9 23:45,0,0,0,0
2003/1/10 0:00,0,0,0,0
2003/1/10 0:15,0,0,0,0
2003/1/10 0:30,0,0,0,0
2003/1/10 0:45,0,0,0,0
2003/1/10 1:00,0,0,0,0
2003/1/10 1:15,0,0,0,0
2003/1/10 1:30,0,0,0,0
2003/1/10 1:45,0,0,0,0
2003/1/10 2:00,0,0,0,0
2003/1/10 2:15,0,0,0,0
2003/1/10 2:30,0,0,0,0
2003/1/10 2:45,0,0,0,0
2003/1/10 3:00,0,0,0,0
2003/1/10 3:15,0,0,0,0
2003/1/10 3:30,0,0,0,0
2003/1/10 3:45,0,0,0,0
2003/1/10 4:00,0,0,0,0
2003/1/10 4:15,0,0,0,0
2003/1/10 4:30,0,0,0,0
2003/1/10 4:45,0,0,0,0
2003/1/10 5:00,0,0,0,0
2003/1/10 5:15,0,0,0,0
2003/1/10 5:30,0,0,0,0
2003/1/10 5:45,0,0,0,0
2003/1/10 6:00,0,0,0,0
2003/1/10 6:15,8.46788E-05,0,10.36,0
2003/1/10 6:30,0.00010179,0,12.45,0
2003/1/10 6:45,0.000101595,0,12.43,0
2003/1/10 7:00,0.00003237,0,0,0
2003/1/10 7:15,0,0,0,0
2003/1/10 7:30,0,0,0,0
2003/1/10 7:45,0,0,0,0
2003/1/10 8:00,0,0,0,0
2003/1/10 8:15,0,0,0,0
2003/1/10 8:30,0,0,0,0
2003/1/10 8:45,0,0,0,0
2003/1/10 9:00,0,0,0,0
2003/1/10 9:15,0,0,0,0
2003/1/10 9:30,0,0,0,0
2003/1/10 9:45,0,0,0,0
2003/1/10 10:00,0,0,0,0
2003/1/10 10:15,0,0,0,0
2003/1/10 10:30,0,0,0,0
2003/1/10 10:45,0,0,0,0
2003/1/10 11:00,0,0,0,0
2003/1/10 11:15,0,0,0,0
2003/1/10 11:30,0,0,0,0
2003/1/10 11:45,0,0,0,0
2003/1/10 12:00,0,0,0,0
2003/1/10 12:15,0,0,0,0
2003/1/10 12:30,0,0,0,0
2003/1/10 12:45,0,0,0,0
2003/1/10 13:00,0,0,0,0
2003/1/10 13:15,0,0,0,0
2003/1/10 13:30,0,0,0,0
2003/1/10 13:45,0,0,0,0
2003/1/10 14:00,0,0,0,0
2003/1/10 14:15,0,0,0,0
2003/1/10 14:30,0,0,0,0
2003/1/10 14:45,0,0,0,0
2003/1/10 15:00,0,0,0,0
2003/1/10 15:15,0,0,0,0
2003/1/10 15:30,0,0,0,0
2003/1/10 15:45,0,0,0,0
2003/1/10 16:00,0,0,0,0
2003/1/10 16:15,0,0,0,0
2003/1/10 16:30,0,0,0,0
2003/1/10 16:45,0,0,0,0
2003/1/10 17:00,0,0,0,0
2003/1/10 17:15,0,0,0,0
2003/1/10 17:30,0,0,0,0
2003/1/10 17:45,0,0,0,0
2003/1/10 18:00,0,0,0,0
2003/1/10 18:15,0,0,0,0
2003/1/10 18:30,0,0,0,0
2003/1/10 18:45,0,0,0,0
2003/1/10 19:00,0,0,0,0
2003/1/10 19:15,0,0,0,0
2003/1/10 19:30,0,0,0,0
2003/1/10 19:45,0,0,0,0
2003/1/10 20:00,0,0,0,0
2003/1/10 20:15,0,0,0,0
2003/1/10 20:30,0,0,0,0
2003/1/10 20:45,0,0,0,0
2003/1/10 21:00,0,0,0,0
2003/1/10 21:15,0,0,0,0
2003/1/10 21:30,0,0,0,0
2003/1/10 21:45,0,0,0,0
2003/1/10 22:00,0,0,0,0
2003/1/10 22:15,0,0,0,0
2003/1/10 22:30,0,0,0,0
2003/1/10 22:45,0,0,0,0
2003/1/10 23:00,0,0,0,0
2003/1/10 23:15,0,0,0,0
2003/1/10 23:30,0,0,0,0
2003/1/10 23:45,0,0,0,0
2003/1/11 0:00,0,0,0,0
2003/1/11 0:15,0,0,0,0